Change the Weather History Date:

Friday, January 3, 2014

  Actual Average Record
Temperature  
Mean Temperature 8 °F 28 °F  
Max Temperature 18 °F 36 °F 63 °F (1997)
Min Temperature -3 °F 20 °F -3 °F (2014)
Degree Days  
Heating Degree Days 57 37  
Month to date heating degree days 139 111  
Since 1 July heating degree days 2321 2306  
Cooling Degree Days 0 0  
Month to date cooling degree days 0 0  
Year to date cooling degree days 0 0  
Moisture  
Dew Point 3 °F    
Average Humidity 65    
Maximum Humidity 88    
Minimum Humidity 42    
Precipitation  
Precipitation 0.20 in 0.10 in 2.30 in (1925)
Month to date precipitation 0.70 0.28  
Year to date precipitation 0.70 0.28  
Snow  
Snow 2.30 in 0.30 in 15.00 in (1925)
Month to date snowfall 7.2 0.8  
Since 1 July snowfall 20.9 6.7  
Snow Depth 7.00 in    
Sea Level Pressure  
Sea Level Pressure 30.03 in    
Wind  
Wind Speed 11 mph (NNW)    
Max Wind Speed 26 mph    
Max Gust Speed 35 mph    
Visibility 5 miles    
Events Snow    
T = Trace of Precipitation, MM = Missing Value Source: NWS Daily Summary

Daily Weather History Graph

Daily Weather History Graph

Search for Another Location

Airport or City:

Trip Planner

Search our weather history database for the weather conditions in past years. The results will help you decide how hot, cold, wet, or windy it might be!

Date:

Astronomy

Jan. 03, 2014 Rise Set
Actual Time 7:25 AM EST 4:47 PM EST
Civil Twilight 6:55 AM EST 5:17 PM EST
Nautical Twilight 6:20 AM EST 5:52 PM EST
Astronomical Twilight 5:47 AM EST 6:25 PM EST
Moon 8:49 AM EST (1/3) 7:54 PM EST (1/3)
Length of Visible Light 10h 22m
Length of Day
9h 21m
Waxing Crescent, 8% of the Moon is Illuminated
Jan 3
Waxing Crescent
Jan 7
First Quarter
Jan 15
Full
Jan 24
Last Quarter
Jan 30
New

Hourly Weather History & Observations

Time (EST) Temp. Windchill Dew Point Humidity Pressure Visibility Wind Dir Wind Speed Gust Speed Precip Events Conditions
12:12 AM 17.6 °F 5.7 °F 12.2 °F 79% 29.69 in 0.8 mi NNE 10.4 mph - 0.01 in Snow Light Snow
12:34 AM 17.6 °F 5.0 °F 12.2 °F 79% 29.69 in 1.0 mi NNE 11.5 mph - 0.03 in Snow Light Snow
12:42 AM 17.6 °F 5.0 °F 12.2 °F 79% 29.70 in 0.8 mi NNE 11.5 mph - 0.03 in Snow Light Snow
12:51 AM 17.1 °F 5.0 °F 12.9 °F 84% 29.72 in 0.8 mi NNE 10.4 mph - 0.04 in Snow Light Snow
1:31 AM 17.6 °F 2.7 °F 12.2 °F 79% 29.67 in 1.0 mi NNE 16.1 mph - 0.03 in Snow Light Snow
1:46 AM 17.6 °F 3.7 °F 12.2 °F 79% 29.71 in 1.2 mi North 13.8 mph - 0.03 in Snow Light Snow
1:51 AM 17.1 °F 4.3 °F 12.0 °F 81% 29.74 in 1.5 mi North 11.5 mph - 0.03 in Snow Light Snow
2:51 AM 16.0 °F 8.8 °F 12.0 °F 84% 29.75 in 1.0 mi North 4.6 mph - 0.02 in Snow Light Snow
2:59 AM 15.8 °F 10.2 °F 12.2 °F 86% 29.74 in 1.0 mi North 3.5 mph - 0.00 in Snow Light Snow
3:51 AM 15.1 °F 1.8 °F 10.9 °F 84% 29.78 in 1.2 mi NNW 11.5 mph - 0.01 in Snow Light Snow
4:09 AM 15.8 °F 2.1 °F 8.6 °F 73% 29.77 in 1.8 mi NNW 12.7 mph - 0.00 in Snow Light Snow
4:27 AM 14.0 °F 0.5 °F 8.6 °F 79% 29.78 in 2.0 mi NW 11.5 mph - 0.00 in Snow Light Snow
4:43 AM 12.2 °F -1.8 °F 8.6 °F 85% 29.79 in 1.5 mi NNW 11.5 mph - 0.01 in Snow Light Snow
4:51 AM 12.9 °F -2.2 °F 7.0 °F 77% 29.82 in 2.0 mi NNW 13.8 mph 20.7 mph 0.01 in Snow Light Snow
5:07 AM 12.2 °F -3.7 °F 6.8 °F 79% 29.81 in 1.8 mi NNW 15.0 mph - 0.00 in Snow Light Snow
5:14 AM 12.2 °F -3.7 °F 6.8 °F 79% 29.82 in 2.0 mi NNW 15.0 mph - 0.00 in Snow Light Snow
5:24 AM 12.2 °F -3.7 °F 3.2 °F 67% 29.83 in 2.0 mi NNW 15.0 mph - 0.00 in Snow Light Snow
5:51 AM 12.9 °F -0.2 °F 3.9 °F 67% 29.88 in 2.0 mi NW 10.4 mph - 0.00 in Snow Light Snow
5:58 AM 12.2 °F -1.0 °F 3.2 °F 67% 29.86 in 3.0 mi NW 10.4 mph 20.7 mph 0.00 in Snow Light Snow
6:51 AM 12.0 °F -3.4 °F 1.9 °F 64% 29.95 in 6.0 mi NNW 13.8 mph 21.9 mph 0.00 in Snow Blowing Snow
7:51 AM 10.9 °F -7.9 °F 1.0 °F 64% 30.01 in 8.0 mi NW 20.7 mph 28.8 mph 0.00 in   Overcast
8:51 AM 10.0 °F -9.5 °F -0.0 °F 64% 30.07 in 5.0 mi NNW 21.9 mph 31.1 mph N/A Snow Blowing Snow
9:16 AM 10.4 °F -9.5 °F -0.4 °F 62% 30.06 in 2.0 mi NNW 23.0 mph 34.5 mph N/A Snow Blowing Snow
9:24 AM 10.4 °F -7.2 °F -0.4 °F 62% 30.07 in 1.8 mi NNW 17.3 mph 34.5 mph N/A Snow Blowing Snow
9:28 AM 10.4 °F -6.6 °F -0.4 °F 62% 30.07 in 3.0 mi NW 16.1 mph 33.4 mph N/A Snow Blowing Snow
9:51 AM 10.9 °F -7.9 °F -0.9 °F 59% 30.12 in 8.0 mi NNW 20.7 mph 26.5 mph N/A   Clear
10:51 AM 12.0 °F -2.0 °F -0.9 °F 56% 30.16 in 10.0 mi NW 11.5 mph 20.7 mph N/A   Clear
11:51 AM 12.9 °F -3.4 °F -0.9 °F 54% 30.18 in 10.0 mi NW 16.1 mph 25.3 mph N/A   Clear
12:51 PM 12.9 °F -2.8 °F -0.9 °F 54% 30.22 in 9.0 mi NW 15.0 mph 28.8 mph N/A   Partly Cloudy
1:51 PM 15.1 °F -0.6 °F -2.0 °F 47% 30.24 in 10.0 mi NNW 16.1 mph 27.6 mph N/A   Clear
2:51 PM 15.1 °F 0.5 °F -2.9 °F 45% 30.27 in 10.0 mi NNW 13.8 mph - N/A   Clear
3:51 PM 14.0 °F 2.0 °F -5.1 °F 43% 30.32 in 10.0 mi NNW 9.2 mph - N/A   Clear
4:51 PM 12.9 °F -0.9 °F -7.1 °F 41% 30.35 in 10.0 mi NNW 11.5 mph - N/A   Clear
5:51 PM 10.9 °F -3.4 °F -7.1 °F 44% 30.39 in 10.0 mi NNW 11.5 mph - N/A   Clear
6:51 PM 9.0 °F 0.6 °F -7.1 °F 48% 30.45 in 10.0 mi NW 4.6 mph - N/A   Clear
7:51 PM 9.0 °F - -6.0 °F 51% 30.48 in 10.0 mi Calm Calm - N/A   Clear
8:51 PM 5.0 °F - -7.1 °F 58% 30.49 in 10.0 mi Calm Calm - N/A   Clear
9:51 PM 1.0 °F -10.3 °F -7.1 °F 69% 30.48 in 10.0 mi North 5.8 mph - N/A   Clear
10:51 PM 1.0 °F - -8.0 °F 66% 30.49 in 10.0 mi Calm Calm - N/A   Clear
11:51 PM 1.0 °F -6.7 °F -7.1 °F 69% 30.48 in 10.0 mi SW 3.5 mph - N/A   Clear